This is the latest recevied weather packets stored in our database for station/object KG5APU. If no packets are shown the sender has not sent any weather packets the latest 10 day(s).
| Time | Temp. | Humidity | Pressure | Rain* | Wind** | Luminosity | Snow |
|---|---|---|---|---|---|---|---|
| 1777910764 | 22.22° C | 59% | 1013.7 hPa | 0 mm | - | 684 W/m² | - |
| 1777910163 | 22.22° C | 59% | 1013.6 hPa | 0 mm | - | 705 W/m² | - |
| 1777909557 | 22.22° C | 62% | 1013.8 hPa | 0 mm | - | 645 W/m² | - |
| 1777908952 | 21.67° C | 62% | 1014 hPa | 0 mm | - | 580 W/m² | - |
| 1777908352 | 21.67° C | 64% | 1014.1 hPa | 0 mm | - | 441 W/m² | - |
| 1777907750 | 21.67° C | 63% | 1014.3 hPa | 0 mm | - | 562 W/m² | - |
| 1777907148 | 21.11° C | 64% | 1014.3 hPa | 0 mm | - | 496 W/m² | - |
| 1777906543 | 20.56° C | 66% | 1014.2 hPa | 0 mm | - | 450 W/m² | - |
| 1777905940 | 20.56° C | 68% | 1014 hPa | 0 mm | - | 420 W/m² | - |
| 1777905340 | 20.56° C | 67% | 1014.4 hPa | 0 mm | - | 371 W/m² | - |
| 1777904735 | 20° C | 69% | 1014.1 hPa | 0 mm | - | 272 W/m² | - |
| 1777904134 | 20° C | 69% | 1014.3 hPa | 0 mm | - | 296 W/m² | - |
| 1777903534 | 19.44° C | 70% | 1014.3 hPa | 0 mm | - | 313 W/m² | - |
| 1777902932 | 19.44° C | 71% | 1014.5 hPa | 0 mm | - | 286 W/m² | - |
| 1777902332 | 18.33° C | 73% | 1014.6 hPa | 0 mm | - | 101 W/m² | - |
| 1777901728 | 18.33° C | 73% | 1014.5 hPa | 0 mm | - | 163 W/m² | - |
| 1777901128 | 18.33° C | 74% | 1014.8 hPa | 0 mm | - | 169 W/m² | - |
| 1777900529 | 18.33° C | 74% | 1014.5 hPa | 0 mm | - | 146 W/m² | - |
| 1777899927 | 17.78° C | 75% | 1014.4 hPa | 0 mm | - | 140 W/m² | - |
| 1777899328 | 17.78° C | 76% | 1014.8 hPa | 0 mm | - | 116 W/m² | - |
| 1777898728 | 17.22° C | 77% | 1014.4 hPa | 0 mm | - | 89 W/m² | - |
| 1777898123 | 17.22° C | 76% | 1014.4 hPa | 0 mm | - | 70 W/m² | - |
| 1777897521 | 17.22° C | 78% | 1014.3 hPa | 0 mm | - | 62 W/m² | - |
| 1777896919 | 16.67° C | 78% | 1014.4 hPa | 0 mm | - | 47 W/m² | - |
| 1777896320 | 16.67° C | 78% | 1014.2 hPa | 0 mm | - | 34 W/m² | - |
* Rain latest hour (hover to see other rain measurements)
** Current wind speed in m/s (hover to see current wind gust speed)